Time,TemperatureF,DewpointF,PressureIn,WindDirection,WindDirectionDegrees,WindSpeedMPH,WindSpeedGustMPH,Humidity,HourlyPrecipIn,Conditions,Clouds,dailyrainin,SoftwareType,DateUTC
2013-01-03 00:04:00,67.3,56.0,29.97,NNW,343,2.7,3.6,67,0.00,,,0.00,WSDL version 420,2013-01-02 13:04:00,
2013-01-03 00:09:00,67.3,56.0,29.97,NW,311,1.3,3.6,67,0.00,,,0.00,WSDL version 420,2013-01-02 13:09:00,
2013-01-03 00:14:00,67.4,55.6,29.97,NW,315,3.0,3.6,66,0.00,,,0.00,WSDL version 420,2013-01-02 13:14:00,
2013-01-03 00:19:00,67.5,55.7,29.97,NW,326,1.3,3.6,66,0.00,,,0.00,WSDL version 420,2013-01-02 13:19:00,
2013-01-03 00:24:00,67.5,55.7,29.97,ENE,62,1.8,3.4,66,0.00,,,0.00,WSDL version 420,2013-01-02 13:24:00,
2013-01-03 00:29:00,67.5,55.7,29.97,ESE,122,2.0,3.4,66,0.00,,,0.00,WSDL version 420,2013-01-02 13:29:00,
2013-01-03 00:34:00,67.5,55.7,29.97,NE,53,2.8,3.8,66,0.00,,,0.00,WSDL version 420,2013-01-02 13:34:00,
2013-01-03 00:39:00,67.5,55.7,29.97,NNW,331,1.3,3.8,66,-99.99,,,-99.99,WSDL version 420,2013-01-02 13:39:00,
2013-01-03 00:44:00,67.5,55.7,29.97,North,10,2.1,3.4,66,0.00,,,0.00,WSDL version 420,2013-01-02 13:44:00,
2013-01-03 00:49:00,67.6,55.8,29.97,NNW,344,2.4,4.3,66,0.00,,,0.00,WSDL version 420,2013-01-02 13:49:00,
2013-01-03 00:54:00,67.6,55.9,29.97,NNW,331,2.4,4.3,66,0.00,,,0.00,WSDL version 420,2013-01-02 13:54:00,
2013-01-03 00:59:00,67.6,55.9,29.97,West,267,2.8,6.0,66,0.00,,,0.00,WSDL version 420,2013-01-02 13:59:00,
2013-01-03 01:04:00,67.6,55.5,29.97,North,360,2.8,6.0,65,0.00,,,0.00,WSDL version 420,2013-01-02 14:04:00,
2013-01-03 01:09:00,67.7,55.5,29.97,NNE,14,2.2,4.3,65,0.00,,,0.00,WSDL version 420,2013-01-02 14:09:00,
2013-01-03 01:14:00,-999.0,-99.9,29.97,NNW,334,2.1,3.8,-999,0.00,,,0.00,WSDL version 420,2013-01-02 14:14:00,
2013-01-03 01:19:00,67.6,55.5,29.97,NW,309,2.3,4.0,65,0.00,,,0.00,WSDL version 420,2013-01-02 14:19:00,
2013-01-03 01:24:00,67.6,55.7,29.97,North,353,2.8,4.0,66,0.00,,,0.00,WSDL version 420,2013-01-02 14:24:00,
2013-01-03 01:29:00,67.6,56.1,29.97,NW,315,2.2,4.7,67,0.00,,,0.00,WSDL version 420,2013-01-02 14:29:00,
2013-01-03 01:34:00,67.5,56.1,29.97,WNW,293,2.9,4.7,67,0.00,,,0.00,WSDL version 420,2013-01-02 14:34:00,
2013-01-03 01:39:00,67.3,56.2,29.97,WNW,285,2.9,4.5,68,0.00,,,0.00,WSDL version 420,2013-01-02 14:39:00,
2013-01-03 01:44:00,67.2,56.3,29.97,WNW,298,3.0,4.5,68,0.00,,,0.00,WSDL version 420,2013-01-02 14:44:00,
2013-01-03 01:49:00,67.1,56.2,29.97,West,273,2.0,4.3,68,0.00,,,0.00,WSDL version 420,2013-01-02 14:49:00,
2013-01-03 01:54:00,66.9,56.0,29.97,West,267,2.4,4.3,68,0.00,,,0.00,WSDL version 420,2013-01-02 14:54:00,
2013-01-03 01:59:00,66.9,56.0,29.97,WNW,287,2.4,4.3,68,0.00,,,0.00,WSDL version 420,2013-01-02 14:59:00,
2013-01-03 02:04:00,66.9,56.0,29.97,NNW,331,1.4,5.4,68,0.00,,,0.00,WSDL version 420,2013-01-02 15:04:00,
2013-01-03 02:09:00,66.9,56.0,29.97,North,357,1.6,5.4,68,0.00,,,0.00,WSDL version 420,2013-01-02 15:09:00,
2013-01-03 02:14:00,66.9,55.9,29.97,NNW,344,1.9,4.0,67,0.00,,,0.00,WSDL version 420,2013-01-02 15:14:00,
2013-01-03 02:19:00,66.9,55.6,29.97,NE,45,2.8,6.3,67,0.00,,,0.00,WSDL version 420,2013-01-02 15:19:00,
2013-01-03 02:24:00,66.9,55.4,29.97,SW,233,1.7,6.3,66,0.00,,,0.00,WSDL version 420,2013-01-02 15:24:00,
2013-01-03 02:29:00,66.9,55.2,29.97,East,98,0.7,3.8,66,-99.99,,,-99.99,WSDL version 420,2013-01-02 15:29:00,
2013-01-03 02:34:00,66.9,55.2,29.97,North,353,2.5,4.9,66,0.00,,,0.00,WSDL version 420,2013-01-02 15:34:00,
2013-01-03 02:39:00,67.0,54.9,29.97,NNW,344,1.9,4.9,65,0.00,,,0.00,WSDL version 420,2013-01-02 15:39:00,
2013-01-03 02:44:00,67.1,55.0,29.97,West,262,3.0,4.3,65,0.00,,,0.00,WSDL version 420,2013-01-02 15:44:00,
2013-01-03 02:49:00,67.1,55.0,29.97,NNE,20,1.8,4.3,65,0.00,,,0.00,WSDL version 420,2013-01-02 15:49:00,
2013-01-03 02:54:00,67.1,54.8,29.94,East,86,2.8,5.6,64,0.00,,,0.00,WSDL version 420,2013-01-02 15:54:00,
2013-01-03 02:59:00,67.1,54.5,29.94,North,6,0.0,5.6,64,0.00,,,0.00,WSDL version 420,2013-01-02 15:59:00,
2013-01-03 03:04:00,67.1,54.5,29.94,NNW,334,0.6,3.6,64,0.00,,,0.00,WSDL version 420,2013-01-02 16:04:00,
2013-01-03 03:09:00,67.1,54.5,29.97,ESE,122,2.3,3.6,64,0.00,,,0.00,WSDL version 420,2013-01-02 16:09:00,
2013-01-03 03:14:00,67.1,54.5,29.97,North,357,1.4,3.1,64,0.00,,,0.00,WSDL version 420,2013-01-02 16:14:00,
2013-01-03 03:19:00,67.1,54.2,29.97,East,90,1.9,5.8,63,0.00,,,0.00,WSDL version 420,2013-01-02 16:19:00,
2013-01-03 03:24:00,67.1,54.1,29.94,WNW,296,1.7,5.8,63,0.00,,,0.00,WSDL version 420,2013-01-02 16:24:00,
2013-01-03 03:29:00,67.1,54.1,29.94,NNW,343,1.3,3.6,63,0.00,,,0.00,WSDL version 420,2013-01-02 16:29:00,
2013-01-03 03:34:00,67.0,54.0,29.94,NW,326,1.9,2.7,63,0.00,,,0.00,WSDL version 420,2013-01-02 16:34:00,
2013-01-03 03:39:00,67.1,53.7,29.97,NNE,14,0.7,4.0,62,0.00,,,0.00,WSDL version 420,2013-01-02 16:39:00,
2013-01-03 03:44:00,67.0,53.5,29.97,NNW,338,2.1,4.0,62,0.00,,,0.00,WSDL version 420,2013-01-02 16:44:00,
2013-01-03 03:49:00,67.0,53.5,29.97,North,6,1.5,3.6,62,0.00,,,0.00,WSDL version 420,2013-01-02 16:49:00,
2013-01-03 03:54:00,66.9,53.5,29.97,North,8,2.5,3.8,62,-99.99,,,-99.99,WSDL version 420,2013-01-02 16:54:00,
2013-01-03 03:59:00,66.9,53.5,29.97,WNW,288,1.9,3.8,62,0.00,,,0.00,WSDL version 420,2013-01-02 16:59:00,
2013-01-03 04:04:00,66.9,53.0,29.97,West,263,2.3,3.4,61,0.00,,,0.00,WSDL version 420,2013-01-02 17:04:00,
2013-01-03 04:09:00,66.9,52.8,29.97,West,266,2.7,4.3,60,0.00,,,0.00,WSDL version 420,2013-01-02 17:09:00,
2013-01-03 04:14:00,66.9,52.6,29.97,West,270,1.7,4.3,60,-99.99,,,-99.99,WSDL version 420,2013-01-02 17:14:00,
2013-01-03 04:19:00,66.9,52.6,29.97,NW,323,1.3,2.9,60,0.00,,,0.00,WSDL version 420,2013-01-02 17:19:00,
2013-01-03 04:24:00,66.8,52.5,29.97,NNW,334,2.3,2.7,60,0.00,,,0.00,WSDL version 420,2013-01-02 17:24:00,
2013-01-03 04:29:00,66.8,52.5,29.97,North,352,1.6,5.6,60,0.00,,,0.00,WSDL version 420,2013-01-02 17:29:00,
2013-01-03 04:34:00,66.9,52.5,29.97,NW,325,1.5,5.6,60,0.00,,,0.00,WSDL version 420,2013-01-02 17:34:00,
2013-01-03 04:39:00,66.8,52.5,29.97,SSE,161,1.6,4.3,60,0.00,,,0.00,WSDL version 420,2013-01-02 17:39:00,
2013-01-03 04:44:00,66.7,52.4,29.97,NNE,26,1.7,4.3,60,0.00,,,0.00,WSDL version 420,2013-01-02 17:44:00,
2013-01-03 04:49:00,66.7,52.2,29.97,North,10,2.4,3.4,59,0.00,,,0.00,WSDL version 420,2013-01-02 17:49:00,
2013-01-03 04:54:00,66.7,52.0,29.97,NW,326,1.3,3.8,59,0.00,,,0.00,WSDL version 420,2013-01-02 17:54:00,
2013-01-03 04:59:00,66.7,52.0,29.97,ENE,58,1.9,3.8,59,0.00,,,0.00,WSDL version 420,2013-01-02 17:59:00,
2013-01-03 05:04:00,66.9,52.0,29.97,NE,51,1.8,3.8,59,0.00,,,0.00,WSDL version 420,2013-01-02 18:04:00,
2013-01-03 05:09:00,66.9,51.8,29.97,NW,325,1.9,3.8,59,0.00,,,0.00,WSDL version 420,2013-01-02 18:09:00,
2013-01-03 05:14:00,66.9,52.1,29.97,NNW,331,1.3,3.4,59,0.00,,,0.00,WSDL version 420,2013-01-02 18:14:00,
2013-01-03 05:19:00,66.8,52.0,29.97,NNE,14,0.5,2.7,59,0.00,,,0.00,WSDL version 420,2013-01-02 18:19:00,
2013-01-03 05:24:00,66.7,52.0,29.97,NE,35,1.3,2.9,59,0.00,,,0.00,WSDL version 420,2013-01-02 18:24:00,
2013-01-03 05:29:00,66.7,52.0,29.97,WNW,283,1.1,2.9,59,0.00,,,0.00,WSDL version 420,2013-01-02 18:29:00,
2013-01-03 05:34:00,66.7,52.0,29.97,NNE,29,1.6,2.9,59,0.00,,,0.00,WSDL version 420,2013-01-02 18:34:00,
2013-01-03 05:39:00,66.7,52.0,30.00,NNE,14,1.2,2.9,59,0.00,,,0.00,WSDL version 420,2013-01-02 18:39:00,
2013-01-03 05:44:00,66.7,52.0,30.00,NNE,23,2.1,2.9,59,0.00,,,0.00,WSDL version 420,2013-01-02 18:44:00,
2013-01-03 05:49:00,66.7,52.0,30.00,North,6,0.9,2.9,59,0.00,,,0.00,WSDL version 420,2013-01-02 18:49:00,
2013-01-03 05:54:00,66.7,52.0,29.97,West,275,1.2,2.9,59,0.00,,,0.00,WSDL version 420,2013-01-02 18:54:00,
2013-01-03 05:59:00,66.7,52.1,29.97,NW,323,1.4,2.9,60,0.00,,,0.00,WSDL version 420,2013-01-02 18:59:00,
2013-01-03 06:04:00,66.7,52.4,29.97,WNW,302,1.8,3.4,60,0.00,,,0.00,WSDL version 420,2013-01-02 19:04:00,
2013-01-03 06:09:00,66.7,52.4,30.00,SSW,211,1.0,3.4,60,0.00,,,0.00,WSDL version 420,2013-01-02 19:09:00,
2013-01-03 06:14:00,-999.0,-99.9,30.00,West,274,1.1,4.0,-999,0.00,,,0.00,WSDL version 420,2013-01-02 19:14:00,
2013-01-03 06:19:00,66.9,52.6,30.00,West,280,0.9,4.0,60,0.00,,,0.00,WSDL version 420,2013-01-02 19:19:00,
2013-01-03 06:24:00,66.9,52.6,30.00,West,278,1.6,2.9,60,0.00,,,0.00,WSDL version 420,2013-01-02 19:24:00,
2013-01-03 06:29:00,66.9,52.6,30.00,NNW,338,1.6,2.9,60,0.00,,,0.00,WSDL version 420,2013-01-02 19:29:00,
2013-01-03 06:34:00,67.1,52.8,30.00,WSW,256,2.0,2.9,60,-99.99,,,-99.99,WSDL version 420,2013-01-02 19:34:00,
2013-01-03 06:39:00,67.1,52.8,29.97,ESE,107,1.0,2.9,60,0.00,,,0.00,WSDL version 420,2013-01-02 19:39:00,
2013-01-03 06:44:00,67.3,52.9,29.97,NW,321,1.4,2.5,60,0.00,,,0.00,WSDL version 420,2013-01-02 19:44:00,
2013-01-03 06:49:00,67.4,53.0,29.97,SSW,194,0.7,2.7,60,0.00,,,0.00,WSDL version 420,2013-01-02 19:49:00,
2013-01-03 06:54:00,67.5,53.3,30.00,NE,45,1.8,2.7,61,0.00,,,0.00,WSDL version 420,2013-01-02 19:54:00,
2013-01-03 06:59:00,67.6,53.7,30.00,NNW,340,1.1,2.7,61,0.00,,,0.00,WSDL version 420,2013-01-02 19:59:00,
2013-01-03 07:04:00,67.9,53.8,30.00,West,270,0.7,2.7,60,0.00,,,0.00,WSDL version 420,2013-01-02 20:04:00,
2013-01-03 07:09:00,68.1,53.7,29.94,NW,312,0.9,2.7,60,0.00,,,0.00,WSDL version 420,2013-01-02 20:09:00,
2013-01-03 07:14:00,68.2,53.8,29.94,NW,319,0.0,2.0,60,0.00,,,0.00,WSDL version 420,2013-01-02 20:14:00,
2013-01-03 07:19:00,68.4,54.0,29.94,North,5,1.6,2.7,60,0.00,,,0.00,WSDL version 420,2013-01-02 20:19:00,
2013-01-03 07:24:00,68.6,54.5,29.97,WNW,296,0.4,2.7,60,0.00,,,0.00,WSDL version 420,2013-01-02 20:24:00,
2013-01-03 07:29:00,68.9,54.5,29.97,NE,55,1.4,2.7,60,0.00,,,0.00,WSDL version 420,2013-01-02 20:29:00,
2013-01-03 07:34:00,69.0,54.7,29.97,NW,321,1.3,3.4,60,0.00,,,0.00,WSDL version 420,2013-01-02 20:34:00,
2013-01-03 07:39:00,69.3,54.8,29.97,North,4,2.2,3.4,60,0.00,,,0.00,WSDL version 420,2013-01-02 20:39:00,
2013-01-03 07:44:00,69.8,55.4,29.97,WNW,301,1.7,3.1,60,0.00,,,0.00,WSDL version 420,2013-01-02 20:44:00,
2013-01-03 07:49:00,70.4,55.9,29.97,South,190,0.9,3.1,60,0.00,,,0.00,WSDL version 420,2013-01-02 20:49:00,
2013-01-03 07:54:00,70.9,55.9,29.94,WNW,298,0.8,4.5,59,0.00,,,0.00,WSDL version 420,2013-01-02 20:54:00,
2013-01-03 07:59:00,71.5,55.7,29.94,NE,39,3.5,4.5,57,0.00,,,0.00,WSDL version 420,2013-01-02 20:59:00,
2013-01-03 08:04:00,71.8,55.4,29.94,NE,41,1.4,4.3,56,0.00,,,0.00,WSDL version 420,2013-01-02 21:04:00,
2013-01-03 08:09:00,71.9,55.0,29.97,NW,309,0.0,5.4,55,0.00,,,0.00,WSDL version 420,2013-01-02 21:09:00,
2013-01-03 08:14:00,72.2,54.6,29.97,East,100,1.6,5.4,53,0.00,,,0.00,WSDL version 420,2013-01-02 21:14:00,
2013-01-03 08:19:00,72.2,54.1,29.97,SW,228,1.1,4.3,53,0.00,,,0.00,WSDL version 420,2013-01-02 21:19:00,
2013-01-03 08:24:00,72.5,54.5,29.97,SSE,148,2.0,5.4,53,0.00,,,0.00,WSDL version 420,2013-01-02 21:24:00,
2013-01-03 08:29:00,72.7,53.9,29.97,NNW,344,2.8,5.4,51,0.00,,,0.00,WSDL version 420,2013-01-02 21:29:00,
2013-01-03 08:34:00,72.5,53.9,29.97,SSE,161,3.3,4.3,52,0.00,,,0.00,WSDL version 420,2013-01-02 21:34:00,
2013-01-03 08:39:00,72.7,54.1,29.97,NNW,333,2.6,5.4,52,0.00,,,0.00,WSDL version 420,2013-01-02 21:39:00,
2013-01-03 08:44:00,72.9,54.3,29.97,ENE,68,1.6,5.4,52,0.00,,,0.00,WSDL version 420,2013-01-02 21:44:00,
2013-01-03 08:49:00,72.8,54.3,29.97,NNE,25,2.9,4.7,53,0.00,,,0.00,WSDL version 420,2013-01-02 21:49:00,
2013-01-03 08:54:00,73.0,54.9,29.97,East,87,2.6,4.7,53,0.00,,,0.00,WSDL version 420,2013-01-02 21:54:00,
2013-01-03 08:59:00,73.1,54.6,29.97,SE,145,2.4,4.5,52,0.00,,,0.00,WSDL version 420,2013-01-02 21:59:00,
2013-01-03 09:04:00,73.5,54.7,29.97,WNW,302,2.0,4.5,51,0.00,,,0.00,WSDL version 420,2013-01-02 22:04:00,
2013-01-03 09:09:00,73.5,54.0,29.97,ESE,116,3.2,5.6,51,0.00,,,0.00,WSDL version 420,2013-01-02 22:09:00,
2013-01-03 09:14:00,73.3,54.2,29.97,WNW,285,3.2,5.8,51,-99.99,,,-99.99,WSDL version 420,2013-01-02 22:14:00,
2013-01-03 09:19:00,73.2,54.3,29.97,NNW,338,2.7,5.8,51,0.00,,,0.00,WSDL version 420,2013-01-02 22:19:00,
2013-01-03 09:24:00,73.2,54.6,30.00,ENE,60,2.4,5.4,52,0.00,,,0.00,WSDL version 420,2013-01-02 22:24:00,
2013-01-03 09:29:00,74.4,55.0,30.00,SW,222,2.7,5.4,50,0.00,,,0.00,WSDL version 420,2013-01-02 22:29:00,
2013-01-03 09:34:00,74.7,54.6,30.00,West,276,3.2,5.4,49,0.00,,,0.00,WSDL version 420,2013-01-02 22:34:00,
2013-01-03 09:39:00,75.4,54.9,30.00,WNW,299,1.3,5.4,49,0.00,,,0.00,WSDL version 420,2013-01-02 22:39:00,
2013-01-03 09:44:00,75.7,54.9,30.00,ENE,65,2.6,4.9,47,0.00,,,0.00,WSDL version 420,2013-01-02 22:44:00,
2013-01-03 09:49:00,75.1,54.1,30.00,NNE,15,2.6,5.4,48,0.00,,,0.00,WSDL version 420,2013-01-02 22:49:00,
2013-01-03 09:54:00,75.5,54.1,29.97,ENE,77,2.4,5.4,47,0.00,,,0.00,WSDL version 420,2013-01-02 22:54:00,
2013-01-03 09:59:00,75.3,54.0,29.97,North,10,3.1,4.7,48,0.00,,,0.00,WSDL version 420,2013-01-02 22:59:00,
2013-01-03 10:04:00,75.1,54.1,29.97,East,90,3.5,5.8,48,0.00,,,0.00,WSDL version 420,2013-01-02 23:04:00,
2013-01-03 10:09:00,-999.0,-99.9,29.97,East,81,3.2,5.8,-999,-99.99,,,-99.99,WSDL version 420,2013-01-02 23:09:00,
2013-01-03 10:14:00,75.5,54.0,29.97,ESE,121,3.6,5.8,46,0.00,,,0.00,WSDL version 420,2013-01-02 23:14:00,
2013-01-03 10:19:00,76.0,54.5,29.97,SSE,165,3.0,5.8,48,0.00,,,0.00,WSDL version 420,2013-01-02 23:19:00,
2013-01-03 10:24:00,76.3,54.2,29.97,NNE,19,3.9,6.3,46,0.00,,,0.00,WSDL version 420,2013-01-02 23:24:00,
2013-01-03 10:29:00,76.1,54.2,29.97,NNE,26,3.2,6.3,46,0.00,,,0.00,WSDL version 420,2013-01-02 23:29:00,
2013-01-03 10:34:00,76.5,54.2,29.97,NE,53,2.8,5.6,46,0.00,,,0.00,WSDL version 420,2013-01-02 23:34:00,
2013-01-03 10:39:00,76.7,54.6,29.97,NNE,31,2.6,4.7,46,0.00,,,0.00,WSDL version 420,2013-01-02 23:39:00,
2013-01-03 10:44:00,76.6,54.0,29.97,ENE,71,4.6,7.4,45,0.00,,,0.00,WSDL version 420,2013-01-02 23:44:00,
2013-01-03 10:49:00,76.5,54.1,29.97,East,88,2.0,7.4,46,0.00,,,0.00,WSDL version 420,2013-01-02 23:49:00,
2013-01-03 10:54:00,77.6,55.2,29.97,NNE,13,2.9,6.3,45,0.00,,,0.00,WSDL version 420,2013-01-02 23:54:00,
2013-01-03 10:59:00,77.8,54.8,29.97,ENE,68,3.1,6.3,45,0.00,,,0.00,WSDL version 420,2013-01-02 23:59:00,
2013-01-03 11:04:00,77.7,54.2,29.97,East,90,3.0,6.3,45,0.00,,,0.00,WSDL version 420,2013-01-03 00:04:00,
2013-01-03 11:09:00,77.9,54.4,29.97,ENE,75,3.4,8.1,44,0.00,,,0.00,WSDL version 420,2013-01-03 00:09:00,
2013-01-03 11:14:00,78.5,54.8,29.97,SE,135,2.8,8.1,44,0.00,,,0.00,WSDL version 420,2013-01-03 00:14:00,
2013-01-03 11:19:00,78.8,54.9,29.97,ENE,58,2.5,6.0,44,-99.99,,,-99.99,WSDL version 420,2013-01-03 00:19:00,
2013-01-03 11:24:00,79.0,54.6,29.97,East,82,3.6,7.6,43,0.00,,,0.00,WSDL version 420,2013-01-03 00:24:00,
2013-01-03 11:29:00,78.4,54.2,29.97,NE,53,2.6,7.6,43,0.00,,,0.00,WSDL version 420,2013-01-03 00:29:00,
2013-01-03 11:36:00,79.0,54.4,29.97,ENE,62,4.3,8.5,43,0.00,,,0.00,WSDL version 420,2013-01-03 00:36:00,
2013-01-03 11:46:00,82.8,56.5,29.97,NE,38,2.6,4.9,40,-99.99,,,-99.99,WSDL version 420,2013-01-03 00:46:00,
2013-01-03 11:51:00,83.0,56.1,29.97,ENE,73,4.9,8.1,39,0.00,,,0.00,WSDL version 420,2013-01-03 00:51:00,
2013-01-03 11:56:00,81.7,55.1,29.97,NE,53,4.5,8.7,40,0.00,,,0.00,WSDL version 420,2013-01-03 00:56:00,
2013-01-03 12:01:00,83.1,55.8,29.97,SSE,154,3.1,9.4,39,0.00,,,0.00,WSDL version 420,2013-01-03 01:01:00,
2013-01-03 12:06:00,81.9,54.2,29.97,East,93,3.7,9.4,39,0.00,,,0.00,WSDL version 420,2013-01-03 01:06:00,
2013-01-03 12:11:00,80.4,53.9,29.97,NE,51,3.1,8.7,40,0.00,,,0.00,WSDL version 420,2013-01-03 01:11:00,
2013-01-03 12:16:00,79.1,53.0,29.97,ENE,62,5.3,10.1,41,0.00,,,0.00,WSDL version 420,2013-01-03 01:16:00,
2013-01-03 12:21:00,77.9,53.0,29.97,ESE,116,3.9,10.1,42,0.00,,,0.00,WSDL version 420,2013-01-03 01:21:00,
2013-01-03 12:26:00,78.7,53.7,29.97,NE,53,3.1,8.5,42,0.00,,,0.00,WSDL version 420,2013-01-03 01:26:00,
2013-01-03 12:31:00,79.5,54.4,29.97,South,177,3.8,7.6,42,0.00,,,0.00,WSDL version 420,2013-01-03 01:31:00,
2013-01-03 12:36:00,79.5,54.3,29.97,SSE,161,2.8,7.4,41,0.00,,,0.00,WSDL version 420,2013-01-03 01:36:00,
2013-01-03 12:41:00,78.3,53.8,29.97,NE,48,5.0,6.5,43,0.00,,,0.00,WSDL version 420,2013-01-03 01:41:00,
2013-01-03 12:46:00,78.9,54.5,29.97,ENE,58,2.4,6.5,43,0.00,,,0.00,WSDL version 420,2013-01-03 01:46:00,
2013-01-03 12:51:00,79.2,54.3,29.97,East,96,4.7,7.4,43,0.00,,,0.00,WSDL version 420,2013-01-03 01:51:00,
2013-01-03 12:56:00,81.4,55.6,29.97,ENE,77,5.3,10.7,40,0.00,,,0.00,WSDL version 420,2013-01-03 01:56:00,
2013-01-03 13:01:00,80.5,54.7,29.97,NE,53,4.4,10.7,41,0.00,,,0.00,WSDL version 420,2013-01-03 02:01:00,
2013-01-03 13:06:00,80.4,54.3,29.97,NE,56,9.0,12.8,41,0.00,,,0.00,WSDL version 420,2013-01-03 02:06:00,
2013-01-03 13:11:00,80.4,54.5,29.97,NE,54,3.8,12.8,41,0.00,,,0.00,WSDL version 420,2013-01-03 02:11:00,
2013-01-03 13:16:00,81.4,55.0,29.97,NE,53,4.3,8.7,40,0.00,,,0.00,WSDL version 420,2013-01-03 02:16:00,
2013-01-03 13:21:00,82.5,55.4,29.97,ENE,75,2.6,8.7,39,0.00,,,0.00,WSDL version 420,2013-01-03 02:21:00,
2013-01-03 13:26:00,83.7,55.7,29.97,ENE,77,3.9,6.9,38,0.00,,,0.00,WSDL version 420,2013-01-03 02:26:00,
2013-01-03 13:31:00,83.4,55.4,29.97,ESE,116,4.1,7.4,38,0.00,,,0.00,WSDL version 420,2013-01-03 02:31:00,
2013-01-03 13:36:00,83.7,55.4,29.97,NNE,23,4.9,7.4,38,0.00,,,0.00,WSDL version 420,2013-01-03 02:36:00,
2013-01-03 13:41:00,83.7,55.1,29.97,NE,51,3.8,8.5,37,0.00,,,0.00,WSDL version 420,2013-01-03 02:41:00,
2013-01-03 13:46:00,81.0,53.8,29.97,East,84,5.8,10.1,40,0.00,,,0.00,WSDL version 420,2013-01-03 02:46:00,
2013-01-03 13:51:00,80.8,54.2,29.97,ESE,116,3.1,10.1,40,0.00,,,0.00,WSDL version 420,2013-01-03 02:51:00,
2013-01-03 13:56:00,81.9,55.1,29.97,East,87,3.0,6.0,40,0.00,,,0.00,WSDL version 420,2013-01-03 02:56:00,
2013-01-03 14:01:00,81.1,54.5,29.97,ENE,60,5.5,7.4,40,0.00,,,0.00,WSDL version 420,2013-01-03 03:01:00,
2013-01-03 14:06:00,80.6,54.7,29.97,East,90,4.9,12.3,41,-99.99,,,-99.99,WSDL version 420,2013-01-03 03:06:00,
2013-01-03 14:11:00,81.7,55.0,29.97,NNE,31,5.2,12.3,40,0.00,,,0.00,WSDL version 420,2013-01-03 03:11:00,
2013-01-03 14:16:00,81.7,55.2,29.97,ENE,59,5.9,10.7,40,0.00,,,0.00,WSDL version 420,2013-01-03 03:16:00,
2013-01-03 14:21:00,81.1,54.6,29.97,SE,129,6.8,10.5,40,0.00,,,0.00,WSDL version 420,2013-01-03 03:21:00,
2013-01-03 14:26:00,81.0,54.4,29.97,SSW,203,5.3,10.5,40,0.00,,,0.00,WSDL version 420,2013-01-03 03:26:00,
2013-01-03 14:31:00,81.5,55.3,29.97,SSE,158,4.5,10.3,41,0.00,,,0.00,WSDL version 420,2013-01-03 03:31:00,
2013-01-03 14:41:00,84.4,56.6,29.97,ESE,122,3.7,6.5,38,0.00,,,0.00,WSDL version 420,2013-01-03 03:41:00,
2013-01-03 14:46:00,84.2,56.1,29.97,NNE,30,4.6,6.5,39,0.00,,,0.00,WSDL version 420,2013-01-03 03:46:00,
2013-01-03 14:51:00,85.7,56.8,29.97,NW,323,3.9,6.5,37,0.00,,,0.00,WSDL version 420,2013-01-03 03:51:00,
2013-01-03 14:56:00,83.8,54.8,29.97,ENE,64,5.8,13.2,38,0.00,,,0.00,WSDL version 420,2013-01-03 03:56:00,
2013-01-03 15:01:00,82.2,54.6,29.97,SSW,203,3.6,13.2,40,0.00,,,0.00,WSDL version 420,2013-01-03 04:01:00,
2013-01-03 15:06:00,82.5,55.6,29.97,ENE,68,2.7,7.4,40,0.00,,,0.00,WSDL version 420,2013-01-03 04:06:00,
2013-01-03 15:11:00,82.7,55.2,29.97,South,183,3.4,7.8,39,0.00,,,0.00,WSDL version 420,2013-01-03 04:11:00,
2013-01-03 15:16:00,83.7,56.1,29.97,SE,139,4.5,7.8,39,0.00,,,0.00,WSDL version 420,2013-01-03 04:16:00,
2013-01-03 15:21:00,83.1,55.6,29.97,South,180,3.4,6.5,39,0.00,,,0.00,WSDL version 420,2013-01-03 04:21:00,
2013-01-03 15:26:00,81.9,55.0,29.94,SSW,209,4.2,8.1,40,0.00,,,0.00,WSDL version 420,2013-01-03 04:26:00,
2013-01-03 15:31:00,82.8,56.0,29.94,ESE,116,5.0,8.1,40,0.00,,,0.00,WSDL version 420,2013-01-03 04:31:00,
2013-01-03 15:36:00,83.7,56.2,29.94,SSE,164,3.6,8.1,39,0.00,,,0.00,WSDL version 420,2013-01-03 04:36:00,
2013-01-03 15:41:00,83.2,55.7,29.94,ENE,77,3.7,7.6,39,0.00,,,0.00,WSDL version 420,2013-01-03 04:41:00,
2013-01-03 15:46:00,84.2,56.4,29.94,South,172,3.1,6.3,38,0.00,,,0.00,WSDL version 420,2013-01-03 04:46:00,
2013-01-03 15:51:00,82.7,52.7,29.94,NNE,32,5.3,7.4,35,-99.99,,,-99.99,WSDL version 420,2013-01-03 04:51:00,
2013-01-03 15:56:00,82.4,52.8,29.94,East,93,4.3,7.8,36,0.00,,,0.00,WSDL version 420,2013-01-03 04:56:00,
2013-01-03 16:01:00,84.2,53.4,29.94,SSE,158,3.4,10.5,34,0.00,,,0.00,WSDL version 420,2013-01-03 05:01:00,
2013-01-03 16:06:00,85.3,53.8,29.94,ESE,109,2.9,10.5,34,0.00,,,0.00,WSDL version 420,2013-01-03 05:06:00,
2013-01-03 16:11:00,84.9,52.3,29.94,ENE,61,3.6,7.2,32,0.00,,,0.00,WSDL version 420,2013-01-03 05:11:00,
2013-01-03 16:16:00,84.7,52.4,29.94,SSE,154,2.9,6.5,33,0.00,,,0.00,WSDL version 420,2013-01-03 05:16:00,
2013-01-03 16:21:00,85.9,52.7,29.94,ESE,110,4.1,8.7,32,0.00,,,0.00,WSDL version 420,2013-01-03 05:21:00,
2013-01-03 16:26:00,85.2,52.1,29.94,East,86,3.9,8.7,32,0.00,,,0.00,WSDL version 420,2013-01-03 05:26:00,
2013-01-03 16:31:00,85.5,52.3,29.94,SSW,203,3.0,8.7,32,0.00,,,0.00,WSDL version 420,2013-01-03 05:31:00,
2013-01-03 16:36:00,85.8,52.8,29.94,ENE,75,3.3,6.0,33,0.00,,,0.00,WSDL version 420,2013-01-03 05:36:00,
2013-01-03 16:41:00,85.9,52.8,29.94,West,280,2.9,5.8,32,0.00,,,0.00,WSDL version 420,2013-01-03 05:41:00,
2013-01-03 16:46:00,86.5,53.2,29.94,ENE,76,3.4,8.1,32,0.00,,,0.00,WSDL version 420,2013-01-03 05:46:00,
2013-01-03 16:51:00,85.7,52.5,29.94,ESE,113,4.8,8.1,32,0.00,,,0.00,WSDL version 420,2013-01-03 05:51:00,
2013-01-03 16:56:00,85.6,52.4,29.94,South,173,3.3,8.1,32,0.00,,,0.00,WSDL version 420,2013-01-03 05:56:00,
2013-01-03 17:01:00,85.7,52.6,29.94,NNE,26,4.4,8.1,33,0.00,,,0.00,WSDL version 420,2013-01-03 06:01:00,
2013-01-03 17:06:00,86.0,52.9,29.94,ESE,110,2.8,6.5,32,0.00,,,0.00,WSDL version 420,2013-01-03 06:06:00,
2013-01-03 17:11:00,86.5,53.2,29.94,East,94,3.5,7.8,32,0.00,,,0.00,WSDL version 420,2013-01-03 06:11:00,
2013-01-03 17:16:00,85.8,52.6,29.94,SSE,151,3.1,7.8,32,0.00,,,0.00,WSDL version 420,2013-01-03 06:16:00,
2013-01-03 17:21:00,84.6,52.1,29.94,SE,124,4.4,8.5,33,0.00,,,0.00,WSDL version 420,2013-01-03 06:21:00,
2013-01-03 17:26:00,84.3,52.6,29.94,NNW,347,3.6,8.5,34,0.00,,,0.00,WSDL version 420,2013-01-03 06:26:00,
2013-01-03 17:31:00,84.8,53.3,29.94,ESE,119,3.7,6.5,34,0.00,,,0.00,WSDL version 420,2013-01-03 06:31:00,
2013-01-03 17:36:00,83.5,52.8,29.94,East,93,6.2,9.8,35,0.00,,,0.00,WSDL version 420,2013-01-03 06:36:00,
2013-01-03 17:41:00,83.7,53.1,29.94,SE,124,4.3,9.8,35,0.00,,,0.00,WSDL version 420,2013-01-03 06:41:00,
2013-01-03 17:46:00,83.3,53.6,29.94,ESE,113,3.2,7.8,36,0.00,,,0.00,WSDL version 420,2013-01-03 06:46:00,
2013-01-03 17:51:00,83.0,54.1,29.94,East,98,3.3,7.8,37,0.00,,,0.00,WSDL version 420,2013-01-03 06:51:00,
2013-01-03 17:56:00,82.7,53.8,29.94,SSE,158,3.6,9.8,37,0.00,,,0.00,WSDL version 420,2013-01-03 06:56:00,
2013-01-03 18:01:00,82.6,54.3,29.94,NE,51,3.1,9.8,38,0.00,,,0.00,WSDL version 420,2013-01-03 07:01:00,
2013-01-03 18:06:00,82.5,54.9,29.94,East,79,4.5,6.5,39,0.00,,,0.00,WSDL version 420,2013-01-03 07:06:00,
2013-01-03 18:11:00,82.1,54.7,29.94,ESE,120,3.1,6.5,39,0.00,,,0.00,WSDL version 420,2013-01-03 07:11:00,
2013-01-03 18:16:00,82.0,55.1,29.94,NE,48,2.6,6.3,40,0.00,,,0.00,WSDL version 420,2013-01-03 07:16:00,
2013-01-03 18:21:00,81.7,55.0,29.94,ESE,116,3.5,5.6,40,0.00,,,0.00,WSDL version 420,2013-01-03 07:21:00,
2013-01-03 18:26:00,81.6,55.0,29.94,NNW,344,2.8,5.6,40,0.00,,,0.00,WSDL version 420,2013-01-03 07:26:00,
2013-01-03 18:31:00,80.2,53.7,29.94,ENE,70,3.4,8.1,40,0.00,,,0.00,WSDL version 420,2013-01-03 07:31:00,
2013-01-03 18:36:00,79.0,53.5,29.94,ENE,74,2.3,8.1,42,0.00,,,0.00,WSDL version 420,2013-01-03 07:36:00,
2013-01-03 18:41:00,77.9,53.5,29.94,NE,39,3.1,7.8,43,0.00,,,0.00,WSDL version 420,2013-01-03 07:41:00,
2013-01-03 18:46:00,76.8,54.4,29.94,ENE,64,3.6,8.1,47,0.00,,,0.00,WSDL version 420,2013-01-03 07:46:00,
2013-01-03 18:56:00,75.2,56.2,29.94,ESE,103,4.6,8.7,53,0.00,,,0.00,WSDL version 420,2013-01-03 07:56:00,
2013-01-03 19:01:00,74.5,55.8,29.94,East,83,1.8,7.4,52,0.00,,,0.00,WSDL version 420,2013-01-03 08:01:00,
2013-01-03 19:06:00,74.5,57.1,29.94,ENE,64,3.3,7.4,55,0.00,,,0.00,WSDL version 420,2013-01-03 08:06:00,
2013-01-03 19:16:00,73.7,56.5,29.94,East,84,3.3,7.4,55,0.00,,,0.00,WSDL version 420,2013-01-03 08:16:00,
2013-01-03 19:21:00,73.3,56.6,29.94,NE,55,4.8,7.2,56,0.00,,,0.00,WSDL version 420,2013-01-03 08:21:00,
2013-01-03 19:26:00,73.0,56.7,29.94,East,95,1.8,7.2,56,0.00,,,0.00,WSDL version 420,2013-01-03 08:26:00,
2013-01-03 19:31:00,72.6,57.1,29.94,NE,48,2.4,8.9,58,0.00,,,0.00,WSDL version 420,2013-01-03 08:31:00,
2013-01-03 19:36:00,72.4,57.7,29.94,NNE,26,4.2,8.9,61,0.00,,,0.00,WSDL version 420,2013-01-03 08:36:00,
2013-01-03 19:41:00,72.3,57.7,29.94,SE,125,1.5,7.2,60,0.00,,,0.00,WSDL version 420,2013-01-03 08:41:00,
2013-01-03 19:46:00,72.0,58.0,29.94,East,96,3.2,7.2,62,0.00,,,0.00,WSDL version 420,2013-01-03 08:46:00,
2013-01-03 19:51:00,71.7,58.3,29.94,NNE,23,3.2,9.6,63,0.00,,,0.00,WSDL version 420,2013-01-03 08:51:00,
2013-01-03 19:56:00,71.5,58.3,29.94,East,93,2.2,9.6,63,0.00,,,0.00,WSDL version 420,2013-01-03 08:56:00,
2013-01-03 20:01:00,71.4,58.4,29.94,ENE,68,4.6,7.8,64,0.00,,,0.00,WSDL version 420,2013-01-03 09:01:00,
2013-01-03 20:06:00,71.1,58.3,29.94,ENE,76,4.5,7.8,64,0.00,,,0.00,WSDL version 420,2013-01-03 09:06:00,
2013-01-03 20:11:00,71.1,58.3,29.94,ENE,68,3.0,7.8,64,0.00,,,0.00,WSDL version 420,2013-01-03 09:11:00,
2013-01-03 20:16:00,70.9,58.1,29.94,NE,42,4.7,12.5,64,0.00,,,0.00,WSDL version 420,2013-01-03 09:16:00,
2013-01-03 20:21:00,70.8,57.8,29.94,ENE,68,3.6,12.5,64,0.00,,,0.00,WSDL version 420,2013-01-03 09:21:00,
2013-01-03 20:26:00,70.7,57.6,29.97,NE,39,5.1,8.1,63,0.00,,,0.00,WSDL version 420,2013-01-03 09:26:00,
2013-01-03 20:31:00,70.7,57.5,29.97,ENE,68,3.6,9.6,63,0.00,,,0.00,WSDL version 420,2013-01-03 09:31:00,
2013-01-03 20:36:00,70.6,57.4,29.97,East,90,5.5,9.8,63,0.00,,,0.00,WSDL version 420,2013-01-03 09:36:00,
2013-01-03 20:41:00,70.5,57.4,29.97,ESE,113,2.7,9.8,63,0.00,,,0.00,WSDL version 420,2013-01-03 09:41:00,
2013-01-03 20:46:00,70.4,57.5,29.97,ESE,121,4.1,7.4,64,0.00,,,0.00,WSDL version 420,2013-01-03 09:46:00,
2013-01-03 20:51:00,70.3,57.6,29.97,NE,53,3.4,8.5,64,0.00,,,0.00,WSDL version 420,2013-01-03 09:51:00,
2013-01-03 20:56:00,70.3,57.7,29.94,East,88,4.1,8.5,65,0.00,,,0.00,WSDL version 420,2013-01-03 09:56:00,
2013-01-03 21:01:00,-999.0,-99.9,29.94,ENE,64,4.0,7.8,-999,0.00,,,0.00,WSDL version 420,2013-01-03 10:01:00,
2013-01-03 21:06:00,70.2,57.9,29.94,ENE,68,4.7,6.9,65,0.00,,,0.00,WSDL version 420,2013-01-03 10:06:00,
2013-01-03 21:11:00,70.2,58.2,29.97,NE,53,4.4,7.4,66,0.00,,,0.00,WSDL version 420,2013-01-03 10:11:00,
2013-01-03 21:16:00,70.2,58.3,29.97,ENE,70,3.2,7.4,66,-99.99,,,-99.99,WSDL version 420,2013-01-03 10:16:00,
2013-01-03 21:21:00,70.2,58.4,29.97,ENE,71,4.1,8.7,67,0.00,,,0.00,WSDL version 420,2013-01-03 10:21:00,
2013-01-03 21:26:00,70.0,58.4,29.97,ENE,59,4.0,8.7,67,0.00,,,0.00,WSDL version 420,2013-01-03 10:26:00,
2013-01-03 21:31:00,70.0,58.3,29.97,East,98,4.1,8.5,67,0.00,,,0.00,WSDL version 420,2013-01-03 10:31:00,
2013-01-03 21:36:00,70.0,58.4,29.97,NE,37,4.0,8.5,66,0.00,,,0.00,WSDL version 420,2013-01-03 10:36:00,
2013-01-03 21:46:00,69.8,57.9,29.97,East,98,3.9,6.5,66,0.00,,,0.00,WSDL version 420,2013-01-03 10:46:00,
2013-01-03 21:51:00,69.8,58.1,29.97,North,4,3.9,11.0,66,0.00,,,0.00,WSDL version 420,2013-01-03 10:51:00,
2013-01-03 21:56:00,69.8,58.0,29.97,East,87,3.2,11.0,66,0.00,,,0.00,WSDL version 420,2013-01-03 10:56:00,
2013-01-03 22:01:00,69.8,58.2,29.97,East,86,3.7,6.5,67,0.00,,,0.00,WSDL version 420,2013-01-03 11:01:00,
2013-01-03 22:06:00,69.7,58.2,29.97,East,87,3.1,6.5,67,0.00,,,0.00,WSDL version 420,2013-01-03 11:06:00,
2013-01-03 22:11:00,69.6,58.2,29.97,ESE,115,4.2,8.1,67,0.00,,,0.00,WSDL version 420,2013-01-03 11:11:00,
2013-01-03 22:21:00,69.4,58.2,29.97,South,180,4.0,7.6,67,0.00,,,0.00,WSDL version 420,2013-01-03 11:21:00,
2013-01-03 22:26:00,69.4,58.2,29.97,East,80,3.4,6.3,68,0.00,,,0.00,WSDL version 420,2013-01-03 11:26:00,
2013-01-03 22:31:00,69.4,58.4,29.97,ENE,77,3.6,5.8,68,0.00,,,0.00,WSDL version 420,2013-01-03 11:31:00,
2013-01-03 22:36:00,69.3,58.3,29.97,ENE,68,3.1,6.0,68,0.00,,,0.00,WSDL version 420,2013-01-03 11:36:00,
2013-01-03 22:41:00,69.3,58.6,29.97,SE,127,3.1,6.0,69,0.00,,,0.00,WSDL version 420,2013-01-03 11:41:00,
2013-01-03 22:46:00,69.3,58.7,29.97,East,84,3.2,5.6,69,0.00,,,0.00,WSDL version 420,2013-01-03 11:46:00,
2013-01-03 22:51:00,69.2,58.6,29.97,East,83,3.4,5.6,69,0.00,,,0.00,WSDL version 420,2013-01-03 11:51:00,
2013-01-03 22:56:00,69.1,58.5,29.97,NNE,28,1.8,5.6,69,0.00,,,0.00,WSDL version 420,2013-01-03 11:56:00,
2013-01-03 23:01:00,68.9,58.5,29.97,NE,56,3.0,4.3,70,0.00,,,0.00,WSDL version 420,2013-01-03 12:01:00,
2013-01-03 23:06:00,68.9,58.6,29.97,North,4,3.1,5.4,70,0.00,,,0.00,WSDL version 420,2013-01-03 12:06:00,
2013-01-03 23:11:00,68.9,58.7,29.97,ENE,74,2.2,5.4,70,0.00,,,0.00,WSDL version 420,2013-01-03 12:11:00,
2013-01-03 23:16:00,68.7,58.6,29.97,North,356,2.1,4.3,70,0.00,,,0.00,WSDL version 420,2013-01-03 12:16:00,
2013-01-03 23:21:00,68.7,58.7,29.97,East,79,1.9,5.4,71,0.00,,,0.00,WSDL version 420,2013-01-03 12:21:00,
2013-01-03 23:26:00,68.7,58.7,29.97,East,79,1.2,5.6,70,0.00,,,0.00,WSDL version 420,2013-01-03 12:26:00,
2013-01-03 23:31:00,68.6,58.5,29.97,ENE,59,2.0,5.6,70,0.00,,,0.00,WSDL version 420,2013-01-03 12:31:00,
2013-01-03 23:36:00,68.5,58.4,29.97,ENE,61,2.3,4.0,70,0.00,,,0.00,WSDL version 420,2013-01-03 12:36:00,
2013-01-03 23:41:00,68.5,58.8,29.97,ENE,63,2.3,6.5,71,0.00,,,0.00,WSDL version 420,2013-01-03 12:41:00,
2013-01-03 23:46:00,68.5,58.8,29.97,East,90,2.9,6.5,71,0.00,,,0.00,WSDL version 420,2013-01-03 12:46:00,
2013-01-03 23:51:00,68.5,58.4,29.97,NNE,15,2.5,4.3,70,0.00,,,0.00,WSDL version 420,2013-01-03 12:51:00,